Location: Unspecified
(50.7693°N, 0.0000°E)
Time: 18:39:30
(UTC+00:00)

Vanguard 1 Rocket - Pass Details

Date: 21 June 2019
Orbit: 651 x 4225 km, 34.3° (Epoch: 14 July)

Event Time Altitude Azimuth Distance (km) Brightness Sun altitude
Rises 21:13:18 0° 260° (W) 5,439 11.8 -7.0°
Reaches altitude 10° 21:18:46 10° 245° (WSW) 3,736 10.7 -7.5°
Maximum altitude 21:24:14 18° 206° (SSW) 2,494 9.4 -8.1°
Drops below altitude 10° 21:28:15 10° 164° (SSE) 2,592 9.1 -8.4°
Enters shadow 21:28:34 - 162° (SSE) 2,645 9.2 -8.5°
Sets 21:31:07 0° 144° (SE) 3,256 - -8.7°
